Regional Weather Roundup
Issued by NWS

Home | Current Version | Previous Version | Graphics & Text | Print | Product List | Glossary On
Versions: 1 2 3 4 5 6 7 8 9 10 11 12 13 14 15 16 17 18 19 20 21 22 23 24 25 26 27 28 29 30 31 32 33 34 35 36 37 38 39 40 41 42 43 44 45 46 47 48 49 50
604
ASUS43 KBIS 281610
RWRND

NORTH DAKOTA REGIONAL WEATHER ROUNDUP
NATIONAL WEATHER SERVICE BISMARCK ND
1100 AM CDT THU APR 28 2016

NOTE: "FAIR" INDICATES FEW OR NO CLOUDS BELOW 12,000 FEET WITH NO
SIGNIFICANT WEATHER AND/OR OBSTRUCTIONS TO VISIBILITY.


NDZ001>003-009>011-017-281700-
NORTHWEST NORTH DAKOTA

CITY           SKY/WX    TMP DP  RH WIND       PRES   REMARKS
WILLISTON      CLOUDY    47  24  40 E12       30.16R
MINOT          CLOUDY    50  20  30 N9        30.15S
MINOT AFB      CLOUDY    47  22  37 NE9       30.14F
$$

NDZ018>021-031>035-040>046-281700-
SOUTHWEST NORTH DAKOTA

CITY           SKY/WX    TMP DP  RH WIND       PRES   REMARKS
BISMARCK       CLOUDY    47  35  63 N8        30.10F
DICKINSON      CLOUDY    39  31  72 NE3       30.08R
GARRISON         N/A     47  25  42 E8        30.12S
HETTINGER ARPT CLOUDY    35  33  92 NE10      30.09R FOG
$$

NDZ004>008-012>016-024-026-027-054-281700-
NORTHEAST NORTH DAKOTA

CITY           SKY/WX    TMP DP  RH WIND       PRES   REMARKS
GRAND FORKS    PTSUNNY   52  20  28 E14       30.12F
GRND FRKS AFB  MOSUNNY   51  19  28 E9G18     30.13S
DEVILS LAKE    CLOUDY    47  21  35 NE13      30.14R
$$

NDZ022-023-025-028>030-036>039-047>053-281700-
SOUTHEAST NORTH DAKOTA

CITY           SKY/WX    TMP DP  RH WIND       PRES   REMARKS
FARGO          CLOUDY    49  19  30 NE8       30.07S
JAMESTOWN      CLOUDY    49  27  42 NE9       30.06F
$$





USA.gov is the U.S. government's official web portal to all federal, state and local government web resources and services.